Lake George, CO

2:15 PM MDT on August 28, 2016 (GMT -0600)
Wilkerson Pass

Weather History for K4BM - August, 2014

Change the Weather History Date:

Saturday, August 9, 2014

  Actual Average (KAFF) Record (KAFF)
Temperature  
Mean Temperature 56 °F -  
Max Temperature 66 °F 78 °F 91 °F (2000)
Min Temperature 44 °F 51 °F 47 °F (2013)
Degree Days  
Heating Degree Days 9    
Growing Degree Days 6 (Base 50)    
Moisture  
Dew Point 31 °F    
Average Humidity 45    
Maximum Humidity 71    
Minimum Humidity 26    
Precipitation  
Precipitation 0.00 in - - ()
Sea Level Pressure  
Sea Level Pressure 30.61 in    
Wind  
Wind Speed 6 mph (West)    
Max Wind Speed 16 mph    
Max Gust Speed 28 mph    
Visibility 10 miles    
Events Rain , Thunderstorm    
Averages and records for this station are not official NWS values.
T = Trace of Precipitation, MM = Missing Value Source: NWS Daily Summary

Daily Weather History Graph

Daily Weather History Graph

Search for Another Location

Airport or City:

Trip Planner

Search our weather history database for the weather conditions in past years. The results will help you decide how hot, cold, wet, or windy it might be!

Date:

Astronomy

Aug. 09, 2014 Rise Set
Actual Time 6:09 AM MDT 8:04 PM MDT
Civil Twilight 5:40 AM MDT 8:33 PM MDT
Nautical Twilight 5:05 AM MDT 9:08 PM MDT
Astronomical Twilight 4:27 AM MDT 9:46 PM MDT
Moon 7:08 PM MDT (8/9) 4:53 AM MDT (8/9)
Length of Visible Light 14h 52m
Length of Day
13h 54m
Waxing Gibbous, 98% of the Moon is Illuminated
Aug 9
Waxing Gibbous
Aug 10
Full
Aug 17
Last Quarter
Aug 25
New
Sep 2
First Quarter

Hourly Weather History & Observations

Time (MDT) Temp. Windchill Dew Point Humidity Pressure Visibility Wind Dir Wind Speed Gust Speed Precip Events Conditions
12:12 AM 48.2 °F - 37.4 °F 66% 30.59 in 10.0 mi South 3.5 mph - N/A   Clear
12:32 AM 50.0 °F - 35.6 °F 58% 30.59 in 10.0 mi Calm Calm - N/A   Clear
12:52 AM 50.0 °F - 35.6 °F 58% 30.59 in 10.0 mi Calm Calm - N/A   Clear
1:12 AM 50.0 °F - 33.8 °F 54% 30.58 in 10.0 mi West 4.6 mph - N/A   Clear
1:32 AM 50.0 °F - 33.8 °F 54% 30.58 in 10.0 mi West 8.1 mph - N/A   Clear
1:52 AM 50.0 °F - 32.0 °F 50% 30.58 in 10.0 mi West 4.6 mph - N/A   Clear
2:12 AM 48.2 °F - 33.8 °F 58% 30.57 in 10.0 mi WSW 4.6 mph - N/A   Clear
2:32 AM 48.2 °F - 33.8 °F 58% 30.57 in 10.0 mi WSW 4.6 mph - N/A   Clear
2:52 AM 48.2 °F - 37.4 °F 66% 30.57 in 10.0 mi West 5.8 mph - N/A   Clear
3:12 AM 46.4 °F 45.2 °F 35.6 °F 66% 30.56 in 10.0 mi WSW 3.5 mph - N/A   Clear
3:32 AM 46.4 °F 44.3 °F 33.8 °F 62% 30.56 in 10.0 mi WSW 4.6 mph - N/A   Clear
3:52 AM 46.4 °F 44.3 °F 32.0 °F 57% 30.56 in 10.0 mi WSW 4.6 mph - N/A   Clear
4:11 AM 48.2 °F - 28.4 °F 46% 30.56 in 10.0 mi WSW 5.8 mph - N/A   Clear
4:32 AM 48.2 °F - 26.6 °F 43% 30.56 in 10.0 mi West 5.8 mph - N/A   Clear
4:52 AM 48.2 °F - 26.6 °F 43% 30.56 in 10.0 mi West 6.9 mph - N/A   Clear
5:12 AM 48.2 °F - 26.6 °F 43% 30.57 in 10.0 mi West 5.8 mph - N/A   Clear
5:32 AM 48.2 °F - 26.6 °F 43% 30.57 in 10.0 mi West 4.6 mph - N/A   Clear
5:52 AM 48.2 °F - 24.8 °F 40% 30.58 in 10.0 mi West 6.9 mph - N/A   Clear
6:12 AM 48.2 °F - 24.8 °F 40% 30.58 in 10.0 mi WSW 6.9 mph - N/A   Clear
6:32 AM 48.2 °F - 24.8 °F 40% 30.59 in 10.0 mi West 6.9 mph - N/A   Clear
6:52 AM 48.2 °F - 26.6 °F 43% 30.59 in 10.0 mi West 6.9 mph - N/A   Clear
7:12 AM 50.0 °F - 24.8 °F 37% 30.59 in 10.0 mi West 6.9 mph - N/A   Clear
7:32 AM 50.0 °F - 24.8 °F 37% 30.60 in 10.0 mi West 6.9 mph - N/A   Clear
7:52 AM 50.0 °F - 26.6 °F 40% 30.60 in 10.0 mi West 6.9 mph - N/A   Clear
8:12 AM 51.8 °F - 26.6 °F 38% 30.60 in 10.0 mi West 4.6 mph - N/A   Clear
8:31 AM 51.8 °F - 26.6 °F 38% 30.61 in 10.0 mi West 6.9 mph - N/A   Clear
8:52 AM 51.8 °F - 26.6 °F 38% 30.61 in 10.0 mi WSW 3.5 mph - N/A   Clear
9:12 AM 53.6 °F - 28.4 °F 38% 30.61 in 10.0 mi Calm Calm - N/A   Clear
9:32 AM 53.6 °F - 28.4 °F 38% 30.60 in 10.0 mi SW 5.8 mph - N/A   Clear
9:52 AM 53.6 °F - 26.6 °F 35% 30.61 in 10.0 mi SW 3.5 mph - N/A   Clear
10:12 AM 55.4 °F - 28.4 °F 36% 30.61 in 10.0 mi SSW 5.8 mph - N/A   Clear
10:32 AM 55.4 °F - 30.2 °F 38% 30.62 in 10.0 mi SSW 6.9 mph - N/A   Clear
11:12 AM 60.8 °F - 32.0 °F 34% 30.62 in 10.0 mi SSW 5.8 mph - N/A   Clear
11:31 AM 60.8 °F - 30.2 °F 31% 30.62 in 10.0 mi South 4.6 mph - N/A   Clear
11:51 AM 64.4 °F - 32.0 °F 30% 30.62 in 10.0 mi SW 3.5 mph - N/A   Clear
12:12 PM 64.4 °F - 30.2 °F 28% 30.61 in 10.0 mi SSW 8.1 mph 17.3 mph N/A   Clear
12:31 PM 66.2 °F - 32.0 °F 28% 30.61 in 10.0 mi South 6.9 mph - N/A   Clear
12:51 PM 62.6 °F - 28.4 °F 27% 30.61 in 10.0 mi WSW 8.1 mph - N/A Thunderstorm Mostly Cloudy
1:12 PM 57.2 °F - 28.4 °F 33% 30.61 in 10.0 mi SSW 3.5 mph 17.3 mph N/A   Overcast
1:32 PM 66.2 °F - 30.2 °F 26% 30.61 in 10.0 mi SW 5.8 mph - N/A   Scattered Clouds
1:52 PM 64.4 °F - 28.4 °F 26% 30.62 in 10.0 mi SSW 5.8 mph - N/A   Scattered Clouds
2:11 PM 60.8 °F - 30.2 °F 31% 30.62 in 10.0 mi SSW 8.1 mph 16.1 mph N/A Thunderstorm Mostly Cloudy
2:52 PM 55.4 °F - 32.0 °F 41% 30.63 in 10.0 mi NNW 6.9 mph - N/A Thunderstorm Overcast
3:12 PM 51.8 °F - 33.8 °F 50% 30.63 in 10.0 mi NW 13.8 mph 27.6 mph N/A Rain Light Rain
3:51 PM 50.0 °F - 33.8 °F 54% 30.62 in 10.0 mi North 13.8 mph 26.5 mph N/A Thunderstorm Overcast
4:11 PM 55.4 °F - 32.0 °F 41% 30.61 in 10.0 mi NNW 6.9 mph 16.1 mph N/A   Overcast
4:32 PM 60.8 °F - 32.0 °F 34% 30.62 in 10.0 mi West 5.8 mph - N/A   Scattered Clouds
4:52 PM 59.0 °F - 32.0 °F 36% 30.63 in 10.0 mi WSW 4.6 mph - N/A   Scattered Clouds
5:12 PM 55.4 °F - 32.0 °F 41% 30.63 in 10.0 mi Calm Calm - N/A   Scattered Clouds
5:31 PM 59.0 °F - 32.0 °F 36% 30.63 in 10.0 mi North - - N/A   Mostly Cloudy
5:52 PM 57.2 °F - 33.8 °F 41% 30.63 in 10.0 mi NNW 5.8 mph - N/A   Scattered Clouds
6:12 PM 55.4 °F - 32.0 °F 41% 30.63 in 10.0 mi NNW 10.4 mph 23.0 mph N/A   Mostly Cloudy
6:32 PM 53.6 °F - 32.0 °F 44% 30.63 in 10.0 mi NNW 9.2 mph - N/A   Scattered Clouds
6:52 PM 53.6 °F - 32.0 °F 44% 30.63 in 10.0 mi NNW 10.4 mph 17.3 mph N/A   Clear
7:12 PM 51.8 °F - 32.0 °F 47% 30.63 in 10.0 mi NNW 12.7 mph 21.9 mph N/A   Clear
7:52 PM 50.0 °F - 33.8 °F 54% 30.64 in 10.0 mi NNW 12.7 mph 20.7 mph N/A   Scattered Clouds
8:12 PM 48.2 °F - 32.0 °F 54% 30.64 in 10.0 mi NNW 16.1 mph 25.3 mph N/A   Clear
8:32 PM 48.2 °F - 32.0 °F 54% 30.64 in 10.0 mi North 16.1 mph 24.2 mph N/A   Clear
8:52 PM 48.2 °F - 32.0 °F 54% 30.65 in 10.0 mi North 16.1 mph 21.9 mph N/A   Clear
9:32 PM 48.2 °F - 32.0 °F 54% 30.67 in 10.0 mi North 13.8 mph 23.0 mph N/A   Clear
9:51 PM 48.2 °F - 32.0 °F 54% 30.68 in 10.0 mi Calm Calm - N/A   Clear
10:12 PM 46.4 °F 42.4 °F 32.0 °F 57% 30.68 in 10.0 mi NNW 8.1 mph - N/A   Clear
10:32 PM 46.4 °F 42.4 °F 32.0 °F 57% 30.67 in 10.0 mi NW 8.1 mph - N/A   Clear
10:52 PM 46.4 °F 42.9 °F 32.0 °F 57% 30.68 in 10.0 mi NNW 6.9 mph - N/A   Clear
11:12 PM 46.4 °F 42.4 °F 32.0 °F 57% 30.69 in 10.0 mi NE 8.1 mph - N/A   Clear
11:32 PM 46.4 °F 43.5 °F 32.0 °F 57% 30.69 in 10.0 mi NE 5.8 mph - N/A   Clear
11:51 PM 44.6 °F 40.7 °F 35.6 °F 71% 30.69 in 10.0 mi ENE 6.9 mph - N/A   Clear